Location: Unspecified
(29.9680°N, 0.0000°E)
Time: 02:23:35
(UTC+00:00)

Vanguard 1 Rocket - Pass Details

Date: 26 June 2019
Orbit: 651 x 4225 km, 34.3° (Epoch: 22 July)

Event Time Altitude Azimuth Distance (km) Brightness Sun altitude
Rises 20:04:05 0° 284° (WNW) 6,532 13.2 -11.7°
Reaches altitude 10° 20:09:15 10° 286° (WNW) 4,926 12.3 -12.6°
Maximum altitude 20:21:28 81° 13° (NNE) 1,359 8.2 -14.7°
Enters shadow 20:26:34 18° 100° (E) 2,247 8.9 -15.6°
